Regional Weather Roundup
Issued by NWS

Home | Current Version | Previous Version | Text Only | Print | Product List | Glossary Off
Versions: 1 2 3 4 5 6 7 8 9 10 11 12 13 14 15 16 17 18 19 20 21 22 23 24 25 26 27 28 29 30 31 32 33 34 35 36 37 38 39 40 41 42 43 44 45 46 47 48 49 50

000
ASUS43 KLMK 301002
RWRKY
KENTUCKY REGIONAL WEATHER ROUNDUP
NATIONAL WEATHER SERVICE LOUISVILLE KY
600 AM EDT SAT JUL 30 2016

NOTE "FAIR" INDICATES FEW OR NO CLOUDS BELOW 12,000 FEET
WITH NO SIGNIFICANT WEATHER AND/OR OBSTRUCTIONS TO VISIBILITY.

KYZ001>023-026-027-061>063-070>075-301100-
WESTERN AND SOUTH CENTRAL KENTUCKY

CITY           SKY/WX    TMP DP  RH WIND       PRES   REMARKS
PADUCAH        PTCLDY    69  67  93 CALM      29.94S FOG
HENDERSON      MOCLDY    72  70  94 CALM      29.91S
OWENSBORO      PTCLDY    71  71 100 SW5       29.93S
HOPKINSVILLE   PTCLDY    71  71  98 SW6       29.96R
BOWLING GREEN  PTCLDY    73  70  90 SW5       29.96R
GLASGOW        NOT AVBL
$$

KYZ024-025-028>034-038-045-046-053-301100-
NORTH CENTRAL KENTUCKY

CITY           SKY/WX    TMP DP  RH WIND       PRES   REMARKS
LOUISVILLE/SDF CLOUDY    73  70  90 W6        29.93R
LOUISVILLE/LOU CLOUDY    73  70  90 W3        29.94R
FORT KNOX      CLOUDY    70  70 100 W3        29.93R FOG
$$

KYZ035>037-039>044-047>052-055>060-089>105-301100-
NORTHEAST KENTUCKY

CITY           SKY/WX    TMP DP  RH WIND       PRES   REMARKS
LEXINGTON      CLOUDY    71  69  93 S5        29.95S
COVINGTON      CLOUDY    71  70  96 W5        29.93R FOG
FRANKFORT      CLOUDY    71  68  90 S6        29.93R
$$

KYZ054-064>069-076>088-106>120-301100-
SOUTHEAST KENTUCKY

CITY           SKY/WX    TMP DP  RH WIND       PRES   REMARKS
JACKSON        MOCLDY    69  67  93 VRB3      29.98S
LONDON         CLOUDY    71  67  87 CALM      29.99R
SOMERSET       CLOUDY    70  70 100 CALM      29.98S
MIDDLESBORO    CLOUDY    70  70 100 CALM      30.01R
MONTICELLO     CLOUDY   N/A N/A N/A NE6       29.99S
$$





USA.gov is the U.S. government's official web portal to all federal, state and local government web resources and services.